This is the latest recevied weather packets stored in our database for station/object KA7EII-13. If no packets are shown the sender has not sent any weather packets the latest 10 day(s).
| Time | Temp. | Humidity | Pressure | Rain* | Wind** | Luminosity | Snow |
|---|---|---|---|---|---|---|---|
| 1777988583 | 6.67° C | 53% | 1101.3 hPa | 0 mm | - | 61 W/m² | - |
| 1777988279 | 6.67° C | 54% | 1101.1 hPa | 0 mm | - | 55 W/m² | - |
| 1777987976 | 6.67° C | 53% | 1101.1 hPa | 0 mm | - | 51 W/m² | - |
| 1777987672 | 6.67° C | 53% | 1101.1 hPa | 0 mm | - | 57 W/m² | - |
| 1777987369 | 6.67° C | 54% | 1101.2 hPa | 0 mm | - | 47 W/m² | - |
| 1777987067 | 6.67° C | 52% | 1101.1 hPa | 0 mm | - | 40 W/m² | - |
| 1777986764 | 6.67° C | 54% | 1101.2 hPa | 0 mm | - | 34 W/m² | - |
| 1777986462 | 6.67° C | 54% | 1101.3 hPa | 0 mm | - | 33 W/m² | - |
| 1777986160 | 6.67° C | 55% | 1100.9 hPa | 0 mm | - | 33 W/m² | - |
| 1777985857 | 6.67° C | 55% | 1100.8 hPa | 0 mm | - | 29 W/m² | - |
| 1777985554 | 6.67° C | 56% | 1100.9 hPa | 0 mm | - | 21 W/m² | - |
| 1777985250 | 7.22° C | 56% | 1100.8 hPa | 0 mm | - | 16 W/m² | - |
| 1777984947 | 7.22° C | 56% | 1100.7 hPa | 0 mm | - | 12 W/m² | - |
| 1777984643 | 7.22° C | 57% | 1100.8 hPa | 0 mm | - | 10 W/m² | - |
| 1777984340 | 7.22° C | 55% | 1100.6 hPa | 0 mm | - | 7 W/m² | - |
| 1777984036 | 7.22° C | 54% | 1100.8 hPa | 0 mm | - | 5 W/m² | - |
| 1777983734 | 7.78° C | 55% | 1100.5 hPa | 0 mm | - | 3 W/m² | - |
| 1777983430 | 7.78° C | 57% | 1100.7 hPa | 0 mm | - | 1 W/m² | - |
| 1777983127 | 7.78° C | 55% | 1100.8 hPa | 0 mm | - | 0 W/m² | - |
| 1777982823 | 7.78° C | 55% | 1100.6 hPa | 0 mm | - | 0 W/m² | - |
| 1777982519 | 7.78° C | 57% | 1100.5 hPa | 0 mm | - | 0 W/m² | - |
| 1777982212 | 7.78° C | 58% | 1100.3 hPa | 0 mm | - | 0 W/m² | - |
| 1777981911 | 7.78° C | 56% | 1100.4 hPa | 0 mm | - | 0 W/m² | - |
| 1777981608 | 7.78° C | 56% | 1100.5 hPa | 0 mm | - | 0 W/m² | - |
| 1777981304 | 7.78° C | 58% | 1100.3 hPa | 0 mm | - | 0 W/m² | - |
* Rain latest hour (hover to see other rain measurements)
** Current wind speed in m/s (hover to see current wind gust speed)